RH
72 71 70 73 73 71 81 93 95 96 100 101 99 97 96 94 97 96 87 89 99 101 100 98 95 91 82 77 79 79 79 86 90 90 95 100 100 97 95 95 99 98 95 96 94 89 85 82 82 82 78 78 78 77 75 73 70 69 68 70 68 63 56
74 72 71 75 79 80 85 91 96 100 101 100 100 99 98 95 97 96 86 84 93 99 101 99 96 89 80 77 87 92 93 97 94 86 87 93 98 101 100 96 97 95 92 97 96 91 90 88 84 83 80 77 76 74 71 68 68 69 69 68 68 70 71
95 93 91 93 94 92 92 96 99 101 99 99 101 100 100 98 97 96 92 89 92 97 99 97 94 90 86 85 92 99 99 98 92 83 79 81 88 96 99 97 98 95 90 92 96 91 89 90 88 85 82 79 77 76 72 69 67 65 63 61 58 59 68
98 98 97 99 101 99 99 101 100 100 100 100 100 99 100 101 99 98 97 95 96 98 96 94 95 96 94 93 95 98 100 97 90 82 76 74 78 85 93 97 99 98 91 90 97 96 90 89 91 89 86 83 81 78 76 73 69 66 62 59 56 54 56
86 85 87 91 97 100 100 99 98 99 99 98 99 100 100 100 100 100 98 97 98 97 93 92 97 100 98 96 95 93 95 97 93 86 81 78 77 79 85 93 99 101 98 96 99 99 96 95 96 95 92 89 85 81 79 77 73 69 67 64 61 59 56
90 82 78 79 85 90 92 91 90 91 92 92 95 98 100 100 100 100 98 99 100 98 94 94 99 100 98 98 97 90 88 94 96 93 89 82 77 78 84 93 99 100 100 100 101 99 99 100 100 98 96 93 90 86 83 81 78 74 73 70 66 63 59
98 91 82 74 74 78 80 79 77 77 81 85 88 91 97 101 100 99 99 99 100 100 98 99 99 98 94 94 96 92 87 88 91 91 91 86 79 80 89 97 100 100 100 99 100 100 100 100 100 99 98 95 93 91 89 88 85 82 80 78 75 70 64
100 98 89 77 70 70 71 71 68 68 71 76 80 84 91 98 100 100 100 99 100 100 99 98 93 86 82 83 87 89 87 86 87 89 91 91 86 83 91 100 100 99 101 100 99 100 100 100 101 100 99 98 96 94 93 91 89 88 87 84 81 77 73
100 100 96 86 78 73 70 67 63 60 61 65 72 78 82 89 96 98 98 97 97 95 92 90 83 72 68 72 78 84 87 87 89 92 93 95 91 84 85 96 101 100 100 100 100 100 100 100 100 100 100 101 98 94 92 92 90 90 90 88 86 83 79
100 100 99 97 95 91 86 81 74 68 64 60 63 70 74 79 86 93 96 94 92 90 87 84 79 68 62 63 69 77 85 87 88 93 97 99 97 89 82 86 96 100 100 100 100 100 100 100 100 100 100 99 95 93 95 95 93 91 92 92 93 92 89
100 100 100 100 101 100 98 95 91 89 86 77 66 63 68 72 77 83 88 89 87 87 86 83 80 73 64 59 61 67 78 86 86 88 96 101 100 97 89 82 83 92 98 100 100 100 100 100 100 98 98 97 96 96 99 98 95 94 93 93 94 94 92
100 100 101 100 100 101 100 99 98 98 99 97 84 69 63 65 70 75 80 82 81 81 82 80 78 75 68 60 57 63 74 84 87 86 90 98 101 99 95 85 76 79 91 98 98 99 100 100 98 95 94 95 95 96 99 99 98 98 94 90 90 89 88
101 99 100 100 100 101 100 99 101 100 99 101 97 85 72 63 63 67 71 73 75 75 75 73 71 70 67 57 54 64 76 83 89 90 89 95 101 99 94 86 76 74 85 95 98 100 100 96 94 93 90 89 91 94 98 101 100 100 97 91 89 87 86
100 100 101 100 99 100 100 100 100 100 100 100 98 95 85 68 57 59 64 65 68 68 66 64 62 61 59 52 50 64 78 82 88 93 91 93 99 100 96 90 83 78 82 93 100 100 98 95 93 91 88 89 94 96 98 99 99 99 98 95 92 90 89
100 100 100 100 100 100 100 101 100 99 101 101 98 98 93 74 56 52 55 56 59 60 58 56 54 51 51 48 49 63 78 83 87 92 93 91 93 98 99 96 89 82 81 92 101 100 97 98 98 95 93 96 99 98 98 98 98 97 98 97 96 96 95
100 100 100 100 100 100 99 100 101 100 100 100 99 99 99 90 75 64 58 54 54 54 53 54 55 55 57 55 53 62 75 82 89 96 97 95 93 93 98 99 93 83 81 89 97 100 100 100 99 100 100 100 100 100 99 100 100 100 100 99 99 100 99
100 100 101 100 100 100 97 97 99 100 99 100 101 99 99 100 97 88 76 67 65 67 70 77 80 80 82 80 70 67 73 82 93 98 98 100 99 93 96 101 94 86 88 90 90 94 99 100 99 100 100 100 100 100 99 99 98 99 99 100 100 99 98
99 100 101 100 101 101 96 93 97 101 100 99 100 101 99 99 101 99 93 86 86 89 93 97 99 97 100 97 86 79 82 89 96 98 95 98 100 96 98 99 90 88 97 98 90 89 95 99 100 100 99 99 99 98 97 96 94 95 98 98 96 95 97
99 99 100 100 99 99 96 91 90 96 101 100 99 100 100 100 100 100 99 98 98 100 100 100 100 99 100 99 94 91 94 97 99 98 93 94 97 96 96 98 96 96 100 99 94 94 97 99 100 100 99 99 98 97 96 93 93 94 94 92 91 92 95
97 95 96 95 92 93 97 94 85 85 93 99 101 101 100 100 100 100 100 101 100 99 100 100 101 101 100 99 96 93 93 95 98 100 97 96 99 95 90 93 98 96 93 94 97 100 100 100 100 100 100 100 99 99 98 96 96 95 92 92 91 90 90
96 92 87 83 82 85 94 98 92 84 83 88 96 101 100 98 98 99 100 101 100 98 96 94 95 96 97 98 98 96 94 92 94 99 100 100 99 95 90 92 95 95 95 97 100 101 99 100 100 100 100 100 100 100 100 99 99 98 97 98 96 93 93
94 89 81 80 87 93 96 98 98 94 87 84 88 96 100 98 95 95 94 95 96 97 95 93 92 92 91 94 96 97 98 96 94 97 99 100 99 97 95 96 96 98 100 100 100 100 100 100 101 100 100 100 99 100 100 100 100 100 100 100 98 97 97
93 88 81 81 88 94 98 99 100 100 96 87 85 93 100 100 98 98 94 89 84 83 84 86 89 91 93 95 96 95 97 98 97 94 94 97 99 99 99 99 99 99 101 100 99 101 101 99 98 98 99 100 100 100 99 100 100 100 100 100 100 99 98
96 95 90 84 79 82 94 101 100 100 99 92 89 95 100 100 99 99 96 90 84 81 83 84 86 90 93 96 98 97 98 100 99 95 95 98 100 98 98 100 100 99 100 100 99 100 100 99 96 96 96 96 97 99 98 97 98 100 100 100 100 99 99
99 99 98 93 84 85 96 102 99 99 101 98 97 99 100 100 100 99 95 91 89 90 94 96 96 96 96 96 97 97 97 99 99 98 98 100 100 99 98 99 100 100 100 100 100 100 100 99 98 98 97 95 95 98 99 98 97 98 99 101 100 100 101
100 100 101 98 94 94 99 101 98 98 100 100 100 101 100 100 100 99 95 93 92 94 97 99 100 100 98 97 97 95 93 93 93 94 97 99 100 100 99 99 99 100 99 97 96 96 99 101 100 100 100 99 98 99 100 100 97 94 97 101 100 99 101
100 100 100 100 99 99 100 100 99 99 100 100 100 100 100 100 100 98 96 96 98 99 99 100 100 100 99 98 97 96 95 93 91 91 94 97 99 99 99 101 100 96 93 90 85 85 91 98 100 100 100 101 100 99 100 101 98 95 97 100 100 100 100
100 100 100 100 100 100 100 100 100 100 99 100 100 100 100 100 98 94 92 93 94 95 97 100 101 100 99 98 98 99 100 98 96 94 93 96 98 97 95 98 100 98 96 95 91 87 89 96 101 100 98 98 99 100 100 100 99 98 99 101 100 100 101
100 100 100 100 100 100 100 100 100 100 100 100 101 100 98 95 92 88 87 89 92 95 98 100 100 100 100 100 100 100 100 100 99 98 97 98 99 98 94 94 97 100 100 100 100 98 97 99 101 100 98 97 98 100 100 100 100 100 100 100 100 100 100
100 100 100 100 100 99 99 100 100 99 100 100 97 93 89 88 89 88 87 88 92 98 100 100 100 100 100 100 100 100 100 97 93 93 96 97 97 99 99 97 98 100 100 100 100 100 100 100 100 100 100 99 99 100 100 100 101 100 100 100 100 100 100
101 100 100 100 100 98 96 97 98 99 101 100 93 86 83 84 87 88 87 90 96 100 101 100 99 99 99 99 99 101 99 93 89 93 99 99 98 100 101 100 100 100 100 100 100 100 100 100 100 100 100 100 100 100 100 100 100 100 100 100 100 100 100
100 99 100 100 100 99 97 97 97 98 98 94 87 82 83 85 87 88 89 93 98 100 100 100 98 97 99 100 100 101 99 95 95 99 101 99 97 95 94 95 97 98 99 101 100 99 100 100 100 100 100 100 101 100 100 100 101 100 100 100 100 100 100
100 100 101 100 99 99 99 100 99 98 95 90 86 84 85 86 87 88 88 93 99 100 100 100 98 98 99 100 100 100 100 99 100 100 96 93 89 83 81 83 85 88 95 100 100 99 100 100 100 101 100 100 100 100 100 100 100 99 100 100 100 100 100
96 100 100 99 100 100 97 96 95 93 92 91 87 84 84 86 87 87 86 90 98 101 100 100 100 100 100 100 101 100 99 100 100 94 88 87 85 79 76 79 85 91 96 99 100 100 100 100 100 100 100 100 100 100 100 100 98 97 96 96 98 100 100
91 98 101 100 100 100 97 96 95 95 95 93 88 85 86 88 88 87 87 91 97 101 100 100 101 101 100 100 100 100 100 101 99 93 88 88 87 83 78 79 88 96 100 100 100 100 99 100 100 100 100 100 100 99 100 100 99 97 95 95 97 98 94
89 93 99 100 100 99 99 98 98 98 99 95 90 87 88 87 86 88 90 93 97 100 101 101 100 100 100 100 100 100 100 99 97 96 95 93 90 88 87 88 93 99 100 100 101 100 98 100 100 100 100 100 100 100 100 99 100 101 101 98 94 89 82
Wind_Speed
30 29 28 28 28 28 28 27 23 20 20 21 23 25 27 28 26 26 26 27 27 25 26 28 27 25 24 22 21 22 24 24 23 24 25 24 25 26 27 26 26 29 32 31 29 28 28 29 30 31 32 33 34 34 35 35 35 36 36 37 38 39 40
27 27 26 25 25 24 24 23 21 20 21 21 20 20 24 26 26 27 26 28 30 26 23 26 27 25 24 22 20 21 23 24 23 23 24 24 25 26 26 27 26 28 30 31 31 31 30 30 30 30 31 32 33 34 34 33 33 34 34 34 36 37 39
20 21 21 19 18 19 20 21 22 22 23 22 19 16 18 20 22 25 26 28 30 28 25 26 26 26 24 22 21 22 24 25 25 25 25 25 25 25 26 26 27 27 29 30 31 32 32 32 32 32 31 31 31 31 31 31 31 31 31 32 34 36 37
19 20 20 17 16 18 21 23 24 23 23 23 20 16 14 15 16 20 25 27 28 28 26 24 24 24 23 22 21 22 23 25 25 25 25 25 25 26 26 26 26 27 28 29 30 31 32 33 33 33 32 32 31 30 29 29 30 31 31 32 33 35 36
22 22 22 21 21 22 24 25 25 25 24 23 22 19 15 14 13 14 19 24 27 28 26 24 23 22 21 22 22 23 23 24 24 24 23 23 24 25 26 25 25 26 27 28 29 29 30 32 33 33 33 33 33 32 31 30 31 31 31 32 33 35 36
22 23 23 24 24 25 25 26 27 28 26 24 23 22 18 15 14 14 16 19 22 26 26 23 22 20 20 21 22 23 24 24 24 23 21 20 21 24 25 24 24 25 26 28 29 29 30 31 32 33 34 34 33 34 33 32 31 31 32 32 33 35 36
22 22 23 24 24 25 26 28 29 29 28 26 24 25 22 18 15 17 19 17 17 22 24 22 20 19 19 20 20 21 23 25 24 22 20 18 18 20 23 23 23 24 26 28 29 31 31 32 32 33 34 34 33 32 32 32 31 32 33 34 35 36 36
21 21 22 23 24 25 26 29 31 30 30 29 27 27 27 21 17 17 19 18 18 20 22 21 20 19 19 19 19 20 20 22 23 22 21 18 16 18 21 22 23 23 25 28 30 31 32 32 32 33 33 33 33 33 33 33 33 34 34 34 35 36 36
19 19 19 21 22 24 25 28 30 30 31 32 30 30 30 26 21 19 18 18 18 20 21 21 21 20 19 18 19 19 18 19 20 22 23 21 18 18 20 23 24 23 24 27 30 32 32 32 33 33 34 35 35 36 36 35 34 33 32 32 32 34 35
16 16 16 17 18 20 22 24 26 26 28 31 32 33 33 31 26 22 20 19 19 20 21 22 23 21 19 19 19 19 18 18 18 21 23 23 21 20 20 22 24 24 24 27 31 33 33 33 33 34 35 36 35 35 35 35 33 32 32 32 32 33 34
14 12 12 14 16 17 18 19 20 20 21 24 28 32 35 35 31 26 24 21 21 22 23 24 24 24 22 20 20 21 21 19 19 20 22 23 23 22 21 21 23 25 25 25 29 32 33 34 34 34 35 35 34 35 35 34 33 33 33 33 34 34 34
11 10 9 10 12 14 15 16 15 16 17 18 22 28 33 36 35 31 28 25 23 23 24 25 25 26 24 22 22 22 22 21 20 20 22 25 25 24 23 23 24 25 26 26 27 30 32 33 32 32 34 35 34 34 34 33 34 34 33 33 33 34 33
10 9 8 9 9 9 10 11 10 11 12 13 16 21 27 33 36 35 32 29 27 25 25 26 26 26 26 24 23 23 22 22 21 21 22 25 27 25 23 23 23 23 25 26 25 27 30 30 30 30 31 32 33 33 33 34 34 34 34 32 31 31 30
12 11 10 10 11 11 10 7 4 6 8 10 12 15 20 27 33 35 35 33 31 29 27 27 26 27 28 26 25 24 23 22 22 21 21 24 26 26 24 23 23 22 22 24 25 26 27 26 26 26 25 26 28 29 30 31 32 32 33 31 29 28 26
14 13 12 12 12 12 11 10 6 3 4 7 9 11 15 21 26 30 34 34 33 31 29 28 27 28 29 28 25 25 25 24 24 23 22 22 25 27 26 25 24 23 21 22 24 25 25 24 23 21 21 22 23 23 23 25 27 28 28 28 28 27 27
13 12 11 10 11 11 10 9 7 5 4 5 8 10 14 17 20 23 27 29 30 29 27 26 27 28 28 26 24 25 26 26 26 25 25 24 25 27 28 28 26 24 22 23 23 23 23 22 20 19 19 18 18 19 19 21 23 25 26 27 28 28 28
12 11 10 10 10 10 9 7 7 6 6 7 9 11 12 15 17 21 22 22 22 22 22 22 22 23 23 22 22 24 25 25 24 23 23 24 25 26 28 28 26 25 24 24 24 23 22 21 19 18 17 17 17 18 18 19 23 25 26 26 26 27 27
13 12 11 11 11 10 10 9 6 5 5 4 5 8 8 7 10 15 19 20 20 19 19 19 19 20 20 21 21 22 24 24 23 21 22 23 24 25 27 28 28 27 26 25 25 25 25 23 20 18 18 18 18 18 19 21 23 24 25 25 25 25 24
14 14 12 11 11 11 11 11 9 7 6 5 3 4 5 4 4 6 10 13 15 16 17 18 20 20 20 20 20 20 22 23 22 22 23 24 25 26 27 28 29 29 28 26 25 25 26 25 23 20 18 18 19 19 20 20 20 21 22 23 23 24 24
15 15 13 12 12 12 12 13 12 9 9 9 7 6 6 7 7 7 8 10 12 13 15 18 19 19 19 19 19 19 20 21 21 23 23 24 25 27 27 27 27 27 26 24 24 24 25 26 24 21 19 19 20 21 21 21 21 21 20 20 22 23 24
16 16 14 12 13 14 14 14 13 12 10 11 12 11 12 12 11 11 12 13 13 15 16 17 18 19 19 19 20 19 19 20 21 23 24 24 25 26 25 25 25 24 22 21 21 23 25 25 24 22 20 20 21 22 21 20 20 20 18 17 19 20 22
18 18 16 15 15 16 16 15 14 14 13 11 13 15 15 15 14 13 13 15 16 18 19 19 19 20 20 20 21 21 21 21 22 22 24 24 23 23 24 24 24 24 24 22 21 22 25 26 24 22 21 21 21 21 20 20 19 17 16 16 16 15 16
21 20 20 19 19 19 20 18 16 17 16 12 12 13 14 15 15 14 13 14 15 16 17 19 20 21 22 23 23 23 22 22 23 24 25 25 23 23 24 25 24 24 25 24 23 24 26 26 24 23 22 22 21 20 20 20 19 17 16 17 16 15 14
24 24 24 23 22 23 23 20 18 18 15 11 8 9 12 13 13 12 13 13 13 13 13 14 14 15 17 19 22 23 23 24 25 25 25 25 24 23 23 26 28 26 25 25 25 26 28 28 26 24 22 21 20 19 19 19 19 19 18 19 19 18 16
27 26 26 26 25 26 25 21 17 15 11 9 8 5 7 8 8 8 9 9 9 9 8 9 10 10 11 12 15 18 21 24 27 27 25 23 23 23 23 25 28 28 27 26 26 26 28 30 31 29 25 21 18 18 19 20 20 20 20 20 21 20 19
28 27 28 28 27 27 25 20 16 11 6 5 6 5 2 2 2 3 4 4 5 6 6 7 8 8 9 10 12 13 16 19 23 27 27 25 23 25 26 26 27 27 28 28 27 26 26 28 29 30 28 23 20 20 22 23 22 21 22 22 21 21 21
27 26 29 29 28 27 24 18 14 10 5 4 6 4 2 3 4 4 4 4 5 6 6 6 7 7 7 8 9 10 11 13 16 21 27 28 27 26 27 28 28 29 29 30 29 29 28 27 26 26 26 25 23 23 25 25 22 20 22 23 22 22 23
24 25 28 28 26 25 23 16 12 10 8 6 7 5 4 5 5 5 5 6 5 5 6 5 5 5 6 6 6 6 6 7 9 12 19 26 30 30 29 28 29 30 32 33 32 32 31 30 28 27 26 25 25 26 28 27 22 19 21 23 23 23 24
21 23 26 25 23 22 19 15 11 11 9 8 7 6 6 6 5 5 6 6 4 4 4 4 4 4 5 6 7 7 6 5 5 6 9 14 20 25 28 30 30 30 31 34 35 35 35 33 31 31 30 28 27 28 29 28 23 20 20 22 22 23 22
17 19 21 21 19 16 14 13 12 11 8 8 7 7 7 7 6 6 6 4 3 4 4 3 3 4 5 5 5 5 5 4 3 3 4 6 9 12 17 21 25 27 29 33 35 36 35 34 33 33 33 31 30 30 30 27 24 20 20 20 20 20 21
14 15 16 17 15 12 11 12 11 10 9 9 9 9 9 8 7 6 4 3 5 6 4 4 3 1 1 1 1 2 3 2 2 2 4 6 8 8 8 10 14 18 22 26 28 28 28 29 29 29 30 29 29 29 28 26 23 21 20 19 17 17 19
14 13 15 16 15 13 12 11 12 13 13 13 12 11 11 10 7 5 6 7 8 7 5 5 5 4 4 4 3 3 2 2 3 5 6 7 8 9 8 8 9 11 13 15 17 18 19 20 21 23 24 25 26 27 26 24 23 21 20 19 17 16 17
13 13 14 16 18 17 14 12 12 13 13 12 12 12 11 10 7 6 6 8 10 9 7 7 6 6 6 6 5 5 4 5 7 8 7 7 7 7 8 9 10 11 12 12 13 14 16 17 18 19 21 23 25 25 24 23 22 22 20 19 18 18 17
13 13 12 12 14 13 11 9 9 10 10 10 10 10 10 8 7 6 6 7 9 10 9 8 8 8 8 7 6 5 5 6 7 7 6 6 6 5 6 9 10 12 13 14 14 14 14 15 16 18 20 22 25 24 22 21 22 21 20 19 19 19 18
15 14 13 11 10 9 8 8 8 8 8 8 9 9 9 7 7 7 7 7 9 9 8 8 9 8 8 8 6 4 5 6 7 6 5 5 5 4 4 7 11 12 13 13 14 14 14 13 14 16 19 21 22 22 21 21 21 20 19 19 19 18 18
16 14 12 10 9 9 9 9 9 9 8 8 9 9 8 7 7 8 8 8 9 9 9 9 10 10 10 9 7 6 6 6 5 5 5 5 4 3 3 7 11 13 13 12 13 14 14 14 14 15 18 20 20 20 19 19 19 18 17 17 16 17 17
Wind_Direction
282 282 281 278 275 268 260 259 261 261 264 266 262 257 254 248 242 238 236 237 241 239 230 229 231 231 232 237 241 239 233 229 230 236 237 235 235 235 233 232 234 238 242 243 243 243 241 240 238 237 237 235 231 229 227 226 226 228 232 233 233 232 232
281 281 279 277 273 266 261 262 264 264 263 262 258 252 249 249 247 243 237 235 240 240 231 228 230 232 233 235 236 235 231 228 228 234 238 236 235 236 234 232 231 235 240 241 241 242 241 239 237 236 235 234 233 230 229 230 230 231 233 235 236 235 234
285 281 276 276 276 268 262 261 259 258 257 256 254 247 241 242 248 249 243 237 238 237 233 230 231 233 234 232 231 231 229 226 225 230 236 237 236 236 236 235 233 234 239 241 241 242 242 241 240 238 236 235 234 233 232 233 233 233 232 232 233 234 236
285 280 273 274 279 270 259 254 253 253 252 253 254 251 241 234 241 249 247 242 238 234 231 231 232 234 232 230 229 228 227 226 225 228 233 235 234 234 234 235 235 235 237 241 241 241 243 243 243 242 239 237 236 235 234 233 233 232 231 231 231 233 236
280 276 270 267 269 266 258 252 251 251 250 249 251 254 249 234 233 245 248 244 237 229 227 230 232 231 228 228 228 226 225 227 228 229 232 234 233 232 231 233 236 236 237 238 238 240 242 242 240 240 239 237 235 234 233 232 232 232 233 232 232 233 237
283 277 271 267 265 265 262 257 254 253 251 247 247 252 254 244 233 233 239 244 237 228 227 230 230 227 225 225 228 227 223 224 227 229 231 235 236 232 228 231 235 237 239 239 238 237 239 240 238 237 237 235 233 233 233 233 233 234 234 235 234 234 237
287 279 272 268 264 263 262 260 257 254 252 247 243 246 251 251 240 230 229 234 230 222 224 227 225 225 225 225 229 229 224 223 225 227 229 234 239 234 228 229 234 237 240 242 239 236 236 238 238 237 236 235 232 230 232 235 236 237 237 236 235 234 236
294 284 273 267 264 262 260 259 257 255 252 249 242 242 248 251 247 237 230 224 216 212 217 221 222 225 228 229 231 232 229 226 225 223 223 228 236 235 230 230 233 234 238 243 241 236 235 236 235 233 231 231 228 225 228 232 234 237 238 238 238 237 237
296 288 278 270 265 263 262 260 259 256 253 250 244 242 246 251 250 245 239 229 220 215 216 219 222 225 231 234 234 234 232 230 228 225 222 223 231 235 232 231 232 232 235 241 240 236 233 232 230 229 227 225 226 228 231 232 232 233 236 238 240 240 240
299 291 284 278 273 269 267 266 264 261 256 251 245 241 244 249 250 248 245 240 232 226 222 223 225 227 232 238 238 237 234 232 231 228 224 224 230 236 235 232 233 232 234 239 238 234 231 229 227 228 229 229 231 232 231 231 231 231 231 232 234 237 238
307 300 291 284 280 278 277 275 272 269 263 254 246 240 241 246 248 247 247 245 241 233 228 228 230 232 236 241 242 240 237 235 233 230 226 226 229 234 238 238 237 235 234 239 239 234 231 231 230 231 232 232 232 230 229 230 230 229 229 229 230 233 233
323 316 308 296 288 284 280 280 280 276 270 260 247 239 239 243 246 246 246 247 246 239 234 233 236 236 239 246 246 241 237 236 234 230 226 225 226 231 239 245 245 238 234 236 239 237 234 233 233 234 234 233 231 230 229 229 228 227 228 229 231 234 235
346 344 341 329 321 313 299 290 286 282 277 266 250 239 237 240 244 245 245 246 246 243 239 239 242 242 243 248 246 238 234 235 234 230 226 226 227 229 235 244 249 244 236 236 240 242 240 237 235 234 234 234 234 233 230 228 227 227 228 229 231 235 238
4 6 7 0 356 358 359 351 315 286 282 271 255 244 238 238 240 242 244 245 245 246 246 245 247 248 248 249 243 233 230 233 232 229 228 228 229 229 230 235 242 243 238 237 239 243 243 240 236 234 233 233 234 233 231 231 230 229 229 230 231 234 237
11 12 14 14 9 5 11 19 13 323 289 273 254 241 236 237 238 239 241 243 245 248 250 249 250 250 249 248 241 228 224 228 230 230 230 232 233 231 228 230 236 239 237 235 236 238 240 242 239 234 232 233 232 231 230 232 234 233 232 232 230 230 231
8 4 2 3 0 356 359 8 8 4 357 323 283 250 236 236 238 238 238 240 242 245 247 247 247 246 245 243 235 223 222 231 237 235 231 230 234 235 230 228 232 238 237 235 236 235 234 237 236 231 229 228 226 225 223 226 230 230 229 228 228 227 228
2 358 351 348 349 349 346 349 355 357 351 331 304 280 259 246 242 241 239 236 234 235 238 243 244 242 240 238 230 223 225 235 241 238 231 228 233 236 233 227 230 238 239 237 239 239 235 233 228 222 218 214 214 215 212 215 221 222 221 221 221 224 227
7 8 1 352 349 346 337 330 329 324 308 300 305 306 299 272 244 237 236 236 235 235 237 242 245 245 244 241 235 229 230 234 235 234 231 230 231 234 232 228 228 232 234 237 241 239 236 234 229 219 211 206 207 208 206 210 216 217 217 217 218 220 224
9 12 10 1 354 350 340 326 312 286 263 260 286 300 295 285 258 236 232 235 238 237 234 234 238 240 240 241 238 233 230 230 231 232 234 234 231 230 229 227 226 227 231 238 241 234 229 231 230 222 213 209 210 212 212 214 218 219 218 218 218 219 219
4 3 5 4 1 358 350 338 327 307 268 250 254 266 263 253 244 238 238 237 236 234 230 229 232 234 237 240 241 237 232 230 229 232 237 237 231 229 228 224 223 226 230 237 237 228 222 225 226 220 213 211 214 216 216 216 218 221 221 218 219 221 220
3 357 355 357 358 355 347 338 335 329 299 262 251 252 255 253 244 236 236 238 238 239 238 236 235 235 236 238 239 240 239 237 233 232 237 239 234 233 232 225 221 223 226 230 232 224 217 218 220 217 214 213 214 213 212 212 214 217 219 220 222 223 225
2 355 353 356 0 358 350 341 337 336 326 292 260 248 248 255 256 251 247 245 244 244 245 246 246 246 244 242 239 237 236 236 236 234 236 239 237 235 232 226 223 226 225 225 226 220 213 212 213 212 211 211 210 209 208 209 212 213 213 217 222 224 227
4 358 355 356 0 360 356 352 345 338 332 313 278 252 245 252 259 266 272 269 263 258 254 253 251 250 250 249 247 243 237 235 238 237 235 235 234 230 228 226 226 229 228 226 222 214 208 207 209 210 210 209 207 206 206 207 209 211 209 211 214 217 219
6 1 356 352 352 353 355 356 348 339 337 333 306 261 246 251 261 275 284 282 279 276 268 263 258 251 248 246 245 244 239 234 234 235 235 234 232 228 226 226 227 229 230 229 225 217 210 208 210 214 216 214 211 209 208 208 208 209 211 211 210 210 209
3 1 357 350 345 346 351 354 346 340 350 360 345 302 264 263 270 279 284 284 286 287 279 277 275 266 259 254 249 246 242 237 232 230 229 230 230 229 226 224 225 228 230 230 229 225 219 216 215 217 219 221 221 217 215 215 211 208 211 214 212 209 207
359 358 356 349 341 343 351 355 346 341 357 9 352 338 305 280 284 295 308 314 312 308 298 291 286 278 270 265 261 256 251 244 236 229 224 222 223 227 228 224 222 224 226 227 228 227 227 224 220 219 219 221 225 225 222 221 217 210 210 213 213 211 209
355 356 355 346 339 346 357 357 349 350 2 0 355 1 59 69 34 7 358 343 322 311 304 296 291 286 281 278 273 266 258 253 245 235 227 220 218 220 224 224 224 225 225 225 223 223 227 227 223 219 218 219 224 226 223 220 219 215 211 212 212 212 213
352 356 354 344 341 352 360 355 357 14 21 9 8 22 59 53 27 7 358 344 323 313 310 303 293 279 272 272 270 260 246 240 238 235 230 225 223 224 225 225 227 227 225 223 222 222 223 223 221 220 219 219 221 223 220 217 216 215 213 213 213 213 214
355 357 352 346 347 357 2 1 15 31 25 13 19 33 38 29 8 347 343 335 323 328 322 304 282 263 253 252 254 251 244 236 230 227 226 223 224 228 230 231 232 232 228 225 225 224 222 220 219 218 217 217 218 219 217 214 213 212 212 214 215 216 216
357 357 356 354 355 1 12 19 28 35 29 23 30 27 12 359 344 336 334 329 352 13 1 319 284 265 248 247 253 248 243 249 259 249 221 204 205 216 223 227 230 231 228 223 221 221 221 219 218 217 215 214 214 213 211 210 209 209 211 213 216 216 215
359 2 10 11 5 7 23 34 38 43 40 33 28 19 5 354 347 349 359 22 35 32 19 3 352 340 142 126 166 180 185 220 253 223 194 183 179 182 191 204 212 215 217 217 215 215 217 217 218 216 213 211 211 209 206 203 202 204 207 209 213 216 215
4 16 32 36 30 28 36 42 42 41 38 31 25 19 13 6 1 12 39 53 51 43 34 29 35 64 93 100 116 131 143 185 169 147 145 148 149 152 155 163 175 183 192 199 201 202 204 208 211 212 210 209 208 206 202 198 196 199 202 202 204 210 213
15 26 47 55 52 50 52 51 42 37 35 31 23 18 16 11 8 19 47 62 58 48 45 52 59 76 98 105 103 100 109 136 136 124 122 134 142 148 154 158 166 171 174 179 185 189 192 195 198 202 204 204 202 200 198 196 195 196 198 200 201 205 209
25 26 40 54 57 57 59 53 39 33 34 32 23 18 19 17 17 26 42 61 63 55 52 60 66 76 92 97 98 108 123 128 118 107 110 133 144 150 158 163 168 171 172 173 176 180 186 190 193 196 198 197 195 194 194 196 196 197 199 201 204 208 211
20 23 26 33 42 46 42 33 25 22 27 29 26 24 24 20 23 34 45 58 66 64 63 67 70 75 81 83 87 105 110 104 101 101 110 127 137 144 165 175 173 168 166 167 168 169 174 182 188 193 196 195 192 191 192 194 196 199 202 205 210 213 210
13 21 25 31 41 40 27 18 17 15 17 26 30 31 32 31 35 43 51 59 67 70 72 76 79 80 80 80 82 88 88 88 96 106 109 109 106 107 162 180 174 166 161 162 163 164 167 172 179 187 191 191 189 190 192 196 199 202 206 210 210 207 200